Miscellaneous Local Product
Issued by NWS Hastings, NE

Home | Current Version | Previous Version | Graphics & Text | Print | Product List | Glossary On
Versions: 1 2 3 4 5 6 7 8 9 10 11 12 13 14 15 16 17 18 19 20 21 22 23 24 25 26 27 28 29 30 31 32 33 34 35 36 37 38 39 40 41 42 43 44 45 46 47 48 49 50
000
AXUS43 KGID 290102
MISGRI

GID CWA HOURLY WEATHER ROUNDUP
NATIONAL WEATHER SERVICE HASTINGS NE
800 PM CDT SAT MAY 28 2016

NOTE: "FAIR" INDICATES FEW OR NO CLOUDS BELOW 12,000 FEET WITH NO
SIGNIFICANT WEATHER AND/OR OBSTRUCTIONS TO VISIBILITY.

...SOUTH CENTRAL NEBRASKA...

CITY           SKY/WX    TMP DP  RH WIND       PRES   REMARKS
GRAND ISLAND   CLEAR     73  53  49 NW8       29.92R
HASTINGS       CLEAR     74  53  48 NW6       29.93R
KEARNEY        CLEAR     73  52  46 W5        29.94S
ORD            PTCLDY    69  57  65 NE5       29.92R
YORK           CLEAR     72  57  60 NW7       29.92R
AURORA         CLEAR     73  54  49 NW6       29.92R
LEXINGTON      CLEAR     73  55  53 CALM      29.94R
HOLDREGE       CLEAR     73  49  42 W7        29.94R
HEBRON         CLEAR     74  55  50 CALM      29.92R

...NEBRASKA PANHANDLE...

CITY           SKY/WX    TMP DP  RH WIND       PRES   REMARKS
CHADRON        CLOUDY    58  51  78 NE8       30.00R
ALLIANCE       CLOUDY    63  52  67 SE6       29.99R
SCOTTSBLUFF    CLOUDY    69  45  41 E16       29.98R
SIDNEY         CLOUDY    68  46  45 W8        30.01R

...WESTERN AND NORTH CENTRAL NEBRASKA...

CITY           SKY/WX    TMP DP  RH WIND       PRES   REMARKS
VALENTINE      SUNNY     72  48  42 N6        29.93R
AINSWORTH      SUNNY     69  52  54 NE5       29.94R
ONEILL         PTCLDY    65  56  72 N6        29.93R
BROKEN BOW     CLEAR     73  52  47 N6        29.93R
IMPERIAL       CLOUDY    73  49  42 CALM      29.97R
NORTH PLATTE   SUNNY     68  51  54 SW7       29.94R
MCCOOK         SUNNY     72  52  49 SW6       29.95R

...EASTERN NEBRASKA...

CITY           SKY/WX    TMP DP  RH WIND       PRES   REMARKS
NORFOLK        CLOUDY    63  56  78 NW8       29.90R
SO SIOUX CITY  MOCLDY    65  58  78 NW17      29.84R
TEKAMAH        PTCLDY    68  55  63 NW17      29.86R
COLUMBUS       CLEAR     68  54  60 NW12      29.91R
ALBION         CLEAR     66  55  67 N6        29.92R
OMAHA EPPLEY   PTCLDY    72  55  55 W16G22    29.86R
OFFUTT AFB     CLEAR     73  56  56 W12       29.87R
MILLARD        MOCLDY    73  58  57 W10       29.87R
LINCOLN        CLEAR     74  57  55 W5        29.90R
NEBRASKA CITY  CLEAR     73  56  56 W12G17    29.89R
BEATRICE       CLEAR     73  56  53 W8        29.91R
FALLS CITY     CLEAR     74  59  59 W8        29.90R

...NORTHERN KANSAS...

CITY           SKY/WX    TMP DP  RH WIND       PRES   REMARKS
GOODLAND       SUNNY     73  43  33 W8        30.01R
HILL CITY      CLEAR     79  47  32 CALM      29.97R
NORTON         CLEAR     75  41  29 W6        29.95R
PHILLIPSBURG   CLEAR     73  54  49 SW3       29.96R
SMITH CENTER   CLEAR     70  57  64 W5        29.96R
BELOIT         CLEAR     61  45  55 SW5       29.94R
HAYS           CLEAR     75  52  43 S7        29.97R
RUSSELL        CLEAR     74  55  51 S5        29.96R
CONCORDIA      CLEAR     73  55  53 SW7       29.94R
SALINA         CLEAR     77  58  51 SW3       29.96R
TOPEKA         CLEAR     76  57  51 SW5       29.94R



USA.gov is the U.S. government's official web portal to all federal, state and local government web resources and services.